• In Deutschland
  • Länderverzeichnis
  • Für 7 Tage
  • Wassertemperatur
  • Satellitenkarten
  • Wetterkarte
  • Widgets
  • user-avatar
    Anmelden

    Stündliche Wetter Naumburg

    Heute, 26 April, Donnerstag

    Zeit Temperatur Niederschläge Wind Luftdruck Luftfeuchtigkeit
    00:00 +9°C° 0,1 mm 2 m/S 746 mmHg 88%
    01:00 +8°C° 0,1 mm 2 m/S 746 mmHg 88%
    02:00 +8°C° 0,1 mm 2 m/S 746 mmHg 89%
    03:00 +8°C° 0,1 mm 3 m/S 746 mmHg 90%
    04:00 +6°C° 0,1 mm 4 m/S 746 mmHg 91%
    05:00 +6°C° 0 mm 5 m/S 747 mmHg 88%
    06:00 +7°C° 0 mm 5 m/S 747 mmHg 85%
    07:00 +7°C° 0 mm 6 m/S 747 mmHg 82%
    08:00 +8°C° 0 mm 7 m/S 747 mmHg 78%
    09:00 +9°C° 0 mm 7 m/S 747 mmHg 73%
    10:00 +9°C° 0 mm 8 m/S 748 mmHg 69%
    11:00 +10°C° 0,2 mm 8 m/S 748 mmHg 66%
    12:00 +11°C° 0,2 mm 8 m/S 748 mmHg 63%
    13:00 +11°C° 0,2 mm 8 m/S 748 mmHg 60%
    14:00 +12°C° 0,2 mm 7 m/S 748 mmHg 60%
    15:00 +12°C° 0,2 mm 7 m/S 748 mmHg 59%
    16:00 +13°C° 0,2 mm 6 m/S 748 mmHg 59%
    17:00 +12°C° 0,1 mm 5 m/S 748 mmHg 64%
    18:00 +11°C° 0,1 mm 4 m/S 748 mmHg 69%
    19:00 +10°C° 0,1 mm 3 m/S 749 mmHg 74%
    20:00 +9°C° 0 mm 3 m/S 749 mmHg 78%
    21:00 +8°C° 0 mm 3 m/S 749 mmHg 81%
    22:00 +7°C° 0 mm 3 m/S 750 mmHg 84%
    23:00 +6°C° 0 mm 2 m/S 750 mmHg 85%

    Morgen, 27 April, Freitag

    Zeit Temperatur Niederschläge Wind Luftdruck Luftfeuchtigkeit
    00:00 +6°C° 0 mm 2 m/S 750 mmHg 86%
    01:00 +6°C° 0 mm 2 m/S 750 mmHg 87%
    02:00 +5°C° 0 mm 2 m/S 750 mmHg 88%
    03:00 +5°C° 0 mm 2 m/S 749 mmHg 88%
    04:00 +5°C° 0 mm 2 m/S 749 mmHg 89%
    05:00 +6°C° 0 mm 2 m/S 749 mmHg 85%
    06:00 +7°C° 0 mm 2 m/S 749 mmHg 82%
    07:00 +8°C° 0 mm 2 m/S 749 mmHg 78%
    08:00 +10°C° 0 mm 2 m/S 748 mmHg 71%
    09:00 +13°C° 0 mm 2 m/S 748 mmHg 63%
    10:00 +14°C° 0 mm 3 m/S 748 mmHg 56%
    11:00 +16°C° 0 mm 3 m/S 747 mmHg 52%
    12:00 +17°C° 0 mm 3 m/S 747 mmHg 48%
    13:00 +18°C° 0 mm 3 m/S 746 mmHg 45%
    14:00 +18°C° 0 mm 3 m/S 745 mmHg 45%
    15:00 +19°C° 0 mm 3 m/S 745 mmHg 45%
    16:00 +19°C° 0 mm 3 m/S 744 mmHg 44%
    17:00 +18°C° 0 mm 2 m/S 744 mmHg 51%
    18:00 +16°C° 0 mm 2 m/S 743 mmHg 58%
    19:00 +15°C° 0 mm 1 m/S 743 mmHg 65%
    20:00 +14°C° 0 mm 2 m/S 743 mmHg 68%
    21:00 +13°C° 0 mm 2 m/S 743 mmHg 70%
    22:00 +12°C° 0 mm 2 m/S 743 mmHg 73%
    23:00 +11°C° 0 mm 3 m/S 744 mmHg 75%

    übermorgen, 28 April, Samstag

    Zeit Temperatur Niederschläge Wind Luftdruck Luftfeuchtigkeit
    00:00 +11°C° 0 mm 3 m/S 744 mmHg 77%
    01:00 +10°C° 0 mm 3 m/S 744 mmHg 80%
    02:00 +10°C° 0 mm 4 m/S 744 mmHg 81%
    03:00 +10°C° 0 mm 4 m/S 744 mmHg 82%
    04:00 +10°C° 0 mm 4 m/S 744 mmHg 84%
    05:00 +9°C° 0 mm 5 m/S 745 mmHg 82%
    06:00 +10°C° 0 mm 6 m/S 745 mmHg 80%
    07:00 +10°C° 0 mm 6 m/S 745 mmHg 78%
    08:00 +11°C° 0 mm 6 m/S 746 mmHg 73%
    09:00 +12°C° 0 mm 7 m/S 746 mmHg 67%
    10:00 +14°C° 0 mm 7 m/S 746 mmHg 62%
    11:00 +14°C° 0 mm 6 m/S 747 mmHg 60%
    12:00 +15°C° 0 mm 6 m/S 747 mmHg 59%
    13:00 +16°C° 0 mm 6 m/S 747 mmHg 57%
    14:00 +16°C° 0 mm 5 m/S 747 mmHg 58%
    15:00 +16°C° 0 mm 5 m/S 747 mmHg 58%
    16:00 +17°C° 0 mm 4 m/S 747 mmHg 58%
    17:00 +16°C° 0 mm 3 m/S 747 mmHg 65%
    18:00 +13°C° 0 mm 3 m/S 747 mmHg 72%
    19:00 +13°C° 0 mm 2 m/S 747 mmHg 79%
    20:00 +12°C° 0 mm 2 m/S 747 mmHg 83%
    21:00 +10°C° 0 mm 2 m/S 748 mmHg 88%
    22:00 +9°C° 0 mm 2 m/S 748 mmHg 92%
    23:00 +8°C° 0 mm 2 m/S 748 mmHg 92%

    29 April, Sonntag

    Zeit Temperatur Niederschläge Wind Luftdruck Luftfeuchtigkeit
    00:00 +8°C° 0 mm 2 m/S 748 mmHg 93%
    01:00 +8°C° 0 mm 2 m/S 748 mmHg 93%
    02:00 +8°C° 0 mm 2 m/S 747 mmHg 94%
    03:00 +7°C° 0 mm 3 m/S 747 mmHg 95%
    04:00 +7°C° 0 mm 3 m/S 747 mmHg 95%
    05:00 +8°C° 0 mm 3 m/S 746 mmHg 94%
    06:00 +8°C° 0 mm 4 m/S 746 mmHg 93%
    07:00 +8°C° 0 mm 4 m/S 746 mmHg 92%
    08:00 +11°C° 0 mm 4 m/S 745 mmHg 86%
    09:00 +13°C° 0 mm 5 m/S 745 mmHg 81%
    10:00 +15°C° 0 mm 5 m/S 744 mmHg 76%
    11:00 +17°C° 0 mm 5 m/S 743 mmHg 73%
    12:00 +19°C° 0 mm 5 m/S 743 mmHg 70%
    13:00 +21°C° 0 mm 5 m/S 742 mmHg 67%
    14:00 +21°C° 0 mm 5 m/S 741 mmHg 67%
    15:00 +22°C° 0 mm 5 m/S 741 mmHg 67%
    16:00 +22°C° 0 mm 5 m/S 740 mmHg 67%
    17:00 +21°C° 0 mm 4 m/S 740 mmHg 73%
    18:00 +20°C° 0 mm 4 m/S 739 mmHg 78%
    19:00 +19°C° 0 mm 4 m/S 738 mmHg 84%
    20:00 +18°C° 0 mm 3 m/S 738 mmHg 87%
    21:00 +17°C° 0 mm 3 m/S 738 mmHg 90%
    22:00 +16°C° 0 mm 2 m/S 737 mmHg 92%
    23:00 +15°C° 0,1 mm 2 m/S 737 mmHg 93%

    30 April, Montag

    Zeit Temperatur Niederschläge Wind Luftdruck Luftfeuchtigkeit
    00:00 +15°C° 0,1 mm 2 m/S 737 mmHg 93%
    01:00 +15°C° 0,1 mm 2 m/S 737 mmHg 94%
    02:00 +15°C° 0,7 mm 2 m/S 737 mmHg 94%
    03:00 +13°C° 0,7 mm 3 m/S 737 mmHg 94%
    04:00 +13°C° 0,7 mm 4 m/S 737 mmHg 94%
    05:00 +13°C° 0,2 mm 5 m/S 738 mmHg 92%
    06:00 +13°C° 0,2 mm 6 m/S 738 mmHg 89%
    07:00 +12°C° 0,2 mm 7 m/S 739 mmHg 87%
    08:00 +11°C° 0,1 mm 7 m/S 740 mmHg 85%
    09:00 +11°C° 0,1 mm 7 m/S 741 mmHg 83%
    10:00 +11°C° 0,1 mm 7 m/S 741 mmHg 81%
    11:00 +11°C° 0,1 mm 7 m/S 742 mmHg 79%
    12:00 +11°C° 0,1 mm 7 m/S 742 mmHg 77%
    13:00 +11°C° 0,1 mm 7 m/S 743 mmHg 74%
    14:00 +12°C° 0 mm 7 m/S 743 mmHg 70%
    15:00 +12°C° 0 mm 7 m/S 743 mmHg 65%
    16:00 +14°C° 0 mm 7 m/S 744 mmHg 60%
    17:00 +13°C° 0 mm 6 m/S 744 mmHg 64%
    18:00 +12°C° 0 mm 5 m/S 744 mmHg 67%
    19:00 +11°C° 0 mm 4 m/S 744 mmHg 70%
    20:00 +10°C° 0 mm 4 m/S 745 mmHg 71%
    21:00 +8°C° 0 mm 4 m/S 745 mmHg 72%
    22:00 +7°C° 0 mm 4 m/S 746 mmHg 73%
    23:00 +7°C° 0 mm 4 m/S 746 mmHg 73%

    1 Mai, Dienstag

    Zeit Temperatur Niederschläge Wind Luftdruck Luftfeuchtigkeit
    00:00 +7°C° 0 mm 4 m/S 746 mmHg 73%
    01:00 +6°C° 0 mm 4 m/S 747 mmHg 74%
    02:00 +6°C° 0 mm 4 m/S 747 mmHg 75%
    03:00 +6°C° 0 mm 4 m/S 747 mmHg 76%
    04:00 +6°C° 0 mm 4 m/S 748 mmHg 78%
    05:00 +7°C° 0 mm 4 m/S 748 mmHg 76%
    06:00 +8°C° 0 mm 4 m/S 748 mmHg 75%
    07:00 +9°C° 0 mm 5 m/S 748 mmHg 73%
    08:00 +10°C° 0 mm 5 m/S 748 mmHg 68%
    09:00 +13°C° 0 mm 5 m/S 748 mmHg 63%
    10:00 +14°C° 0 mm 5 m/S 748 mmHg 58%
    11:00 +15°C° 0 mm 5 m/S 748 mmHg 55%
    12:00 +17°C° 0 mm 4 m/S 748 mmHg 53%
    13:00 +18°C° 0 mm 4 m/S 748 mmHg 50%
    14:00 +18°C° 0,1 mm 4 m/S 748 mmHg 51%
    15:00 +18°C° 0,1 mm 3 m/S 747 mmHg 51%
    16:00 +18°C° 0,1 mm 3 m/S 747 mmHg 52%
    17:00 +17°C° 0,1 mm 2 m/S 747 mmHg 59%
    18:00 +15°C° 0,1 mm 2 m/S 747 mmHg 66%
    19:00 +14°C° 0,1 mm 2 m/S 747 mmHg 73%
    20:00 +13°C° 0 mm 2 m/S 748 mmHg 74%
    21:00 +12°C° 0 mm 2 m/S 748 mmHg 75%
    22:00 +9°C° 0 mm 3 m/S 749 mmHg 76%
    23:00 +9°C° 0 mm 3 m/S 749 mmHg 76%
    Mehr zeigen